KOKIPOKER - SITUS JUDI POKER ONLINE TERPERCAYA DI INDONESIA

Jackpot

Texas Poker Multi Jackpot System

Kini Telah hadir Jackpot SUPER ROYAL FLUSH

Kini Telah hadir Jackpot 2000 (khusus table VIP keatas).

Ikutilah global jackpot yang tersedia di system kami, dengan system jackpot terbaru dan pertama di indonesia, anda dapat membeli jackpot dengan harga 100 rupiah saja dan menangkan hadiahnya hingga puluhan juta rupiah.

Jackpot bukanlah suatu keharusan untuk dibeli, namun kami memberikan suatu fitur tambahan untuk member tercinta dari www.kokipkr.com.

Terdapat tiga pilihan harga jackpot yang bisa anda beli yaitu :100,500,1000 dan 2000(khusus table VIP Keatas) rupiah.

Hadiah dari Multi jackpot system www.kokipkr.com

  1. full house x 10 harga jackpot yang anda beli.
      (contoh:anda membeli 1000 maka:1000 X10 = 10.000)
  2. four of kind x 250 harga jackpot yang anda beli
      (contoh:anda membeli 1000 maka:1000 X250 = 250.000)
  3. Straight flush x 1200
      (contoh:anda membeli 1000 maka:1000 X1200 = 1.200.000)
  4. Royal flush x 10000 harga jackpot yang anda beli
      (contoh:anda membeli 1000 maka:1000 X10000 = 10.000.000)
  5. SUPER ROYAL FLUSH x 30000 harga jackpot yang anda beli
      (contoh:anda membeli 1000 maka:1000 X30000 = 30.000.000)

Kondisi kartu

  1. full house adalah kondisi kartu dimana kartu anda dan kartu tengah dengan total 7 kartu bisa mendapatkan nilai 5 kartu dengan kombinasi 1 tris(three of kind) dan 1 pair, contoh 3 kartu 10 dan 2 kartu 5
  2. Four of kind adalah kondisi kartu dimana kartu anda dan kartu tengah dengan total 7 kartu bisa mendapatkan nilai 5 kartu dengan kombinasi 4 kartu yang sama jumlah dan 1 kartu apapun juga contoh anda mendapatkan 4 buah kartu angka 3 dan 1 kartu apapun.
  3. Staright flush adalah kondisi kartu dimana kartu anda dan kartu tengah dengan total 7 kartu bisa mendapatkan nilai 5 kartu dengan kombinasi seri / staright dengan kembang yang sama contoh : urutan kartu dari angka 5, 6, 7, 8 , 9 10 dengan kembang yg sama misalnya as hati
  4. Royal flush adalah kondisi kartu dimana kartu anda dan kartu tengah dengan total 7 kartu bisa mendapatkan nilai 5 kartu dengan kombinasi seri / staright dengan kembang yang sama tetapi kartu tersebut haruslah dimulai dari 10. contoh 10, Queen, Jack, King dan aces dengan kembang yang sama
  5. Super Royal flush adalah kondisi kartu dimana Kedua kartu anda digabung dengan 3 kartu pertama meja haruslah royal flush. contoh kartu anda 10,Queen kembang sama dan 3 kartu pertama meja adalah Jack, King dan aces dengan kembang yang sama

Demikian adalah penjelasan dari Multi Jackpot www.kokipkr.com terima kasih dan selamat bermain salam hoki dari kami

Texas Poker Jackpot Winner

TOP SUPER ROYAL FLUSH
No.TanggalNamaPriceWin
118/01 22:07PHOTEN9Super Royal flush3,000,000
218/01 19:56JR270186Super Royal flush15,000,000
318/01 11:15VERY90Super Royal flush3,000,000
418/01 10:09B904154ESuper Royal flush15,000,000
517/01 22:46GOLOK_JRZSuper Royal flush30,000,000
TOP ROYAL FLUSH
No.TanggalNamaPriceWin
119/01 15:28YNA11Royal flush10,000,000
219/01 15:23BAGUS5758Royal flush1,000,000
319/01 15:21GDNGPOKERRoyal flush10,000,000
419/01 15:19LOCHNESSRoyal flush5,000,000
519/01 14:55XVVFHY58SURoyal flush1,000,000
TOP STRAIGHT FLUSH
No.TanggalNamaPriceWin
119/01 15:41ROYC000Straight Flush600,000
219/01 15:40BOTETTTStraight Flush120,000
319/01 15:39R3KAYAS4Straight Flush1,200,000
419/01 15:37ZIVOYZZZStraight Flush1,200,000
519/01 15:37SIFAASStraight Flush1,200,000
LATEST JACKPOT
No.TanggalNamaPriceWin
119/01 15:42BC7A27E6Full House5,000
219/01 15:42R260Full House5,000
319/01 15:42BULEEE85Full House20,000
419/01 15:42GELDORFull House5,000
519/01 15:41T4D0015585Full House5,000
619/01 15:41HARWOTOFour Of A Kind250,000
719/01 15:41HELPPPFull House5,000
819/01 15:41ALHAMDU45Full House5,000
919/01 15:41IDE2207Full House1,000
1019/01 15:41UEBMF0VLFIFull House20,000
1119/01 15:41B4NKYWNFull House20,000
1219/01 15:41KOBAM93Full House1,000
1319/01 15:41B538A8ADFour Of A Kind125,000
1419/01 15:41LERPE69Full House1,000
1519/01 15:41KIRAIN46Full House1,000
1619/01 15:41BADBOY002Full House5,000
1719/01 15:41PUTRARICHYFour Of A Kind25,000
1819/01 15:41KANGCIWAFull House5,000
1919/01 15:41OVH1GWM3W7Full House1,000
2019/01 15:41P_I_L_O_TFull House5,000
2119/01 15:41AZKA898Full House5,000
2219/01 15:41JAHAT85Full House1,000
2319/01 15:41IYEM4NFull House5,000
2419/01 15:41MUCDAN88Full House10,000
2519/01 15:41REHANN22Full House1,000
2619/01 15:41PLEPAVANFull House10,000
2719/01 15:41NAGA1339Full House10,000
2819/01 15:41SPOTAKER01Full House1,000
2919/01 15:41KARSO69Full House1,000
3019/01 15:41BABE0101Full House1,000
3119/01 15:41CIUT22Full House1,000
3219/01 15:41ROYC000Straight Flush600,000
3319/01 15:41INSYA88Full House10,000
3419/01 15:41JIO7777Full House5,000
3519/01 15:41JAJAKA83Full House5,000
3619/01 15:41DADAHHFull House1,000
3719/01 15:41ENJIBOTFull House1,000
3819/01 15:41ALVINO50Full House1,000
3919/01 15:41INIDIA12Full House10,000
4019/01 15:41GUDU88Full House1,000
4119/01 15:41KARNOOFull House10,000
4219/01 15:41BA28Full House10,000
4319/01 15:41BLACKBAS99Full House1,000
4419/01 15:40FRD858080Full House5,000
4519/01 15:40WAPRAFull House1,000
4619/01 15:40D15B6816Full House10,000
4719/01 15:40DAFAS111Full House1,000
4819/01 15:40ULTRAMEN12Full House1,000
4919/01 15:40LERPE69Full House1,000
5019/01 15:40SAMSING455Full House1,000

Domino Multi Jackpot System

Ikutilah global jackpot yang tersedia di system kami, dengan system jackpot terbaru dan pertama di indonesia, anda dapat membeli jackpot dengan harga 100 rupiah saja dan menangkan hadiahnya hingga puluhan juta rupiah.

Jackpot bukanlah suatu keharusan untuk dibeli, namun kami memberikan suatu fitur tambahan untuk member tercinta dari www.kokipkr.com.

Terdapat tiga pilihan harga jackpot yang bisa anda beli yaitu :100,500 dan 1000 rupiah.

Hadiah dari Multi jackpot system www.kokipkr.com

  1. Murni Kecil x 50 harga jackpot yang anda beli.
      (contoh:anda membeli 1000 maka:1000 X 50 = 50.000)
  2. Murni Besar x 50 harga jackpot yang anda beli
      (contoh:anda membeli 1000 maka:1000 X 50 = 50.000)
  3. BALAK x 100 harga jackpot yang anda beli
      (contoh:anda membeli 1000 maka:1000 X 100 = 100.000)
  4. ENAM DEWA x 6666 harga jackpot yang anda beli
      (contoh:anda membeli 1000 maka:1000 X 6666 = 6.666.000)

Demikian adalah penjelasan dari Multi Jackpot www.kokipkr.com terima kasih dan selamat bermain salam hoki dari kami

Domino Jackpot Winner

TOP ENAM DEWA
No.TanggalNamaPriceWin
119/01 13:23KBA6WTT4RHmurni enam6,666,000
219/01 01:36THEMEZ72murni enam6,666,000
319/01 01:24PIC_SHUITmurni enam3,333,000
419/01 00:49M3R4H99murni enam6,666,000
518/01 23:49FLUS85murni enam3,333,000
TOP BALAK
No.TanggalNamaPriceWin
119/01 15:41ASUE68balak10,000
219/01 15:40DRA85balak10,000
319/01 15:38VEGA26balak50,000
419/01 15:38SANJAYA261balak100,000
519/01 15:35R4K451W1balak10,000
LATEST JACKPOT
No.TanggalNamaPriceWin
119/01 15:41ASUE68balak10,000
219/01 15:41ROYAL6666murni besar50,000
319/01 15:41XDLB5FJ1TUmurni besar50,000
419/01 15:41ALN123murni besar50,000
519/01 15:40SNI35588murni besar25,000
619/01 15:40DRA85balak10,000
719/01 15:38JERRYANTOmurni kecil50,000
819/01 15:38ITSME7murni besar50,000
919/01 15:38VEGA26balak50,000
1019/01 15:38SANJAYA261balak100,000
1119/01 15:35R4K451W1balak10,000
1219/01 15:33BENTCOmurni besar50,000
1319/01 15:33V4NIS4balak10,000
1419/01 15:33JACKMILERmurni kecil25,000
1519/01 15:32LOSARI77murni kecil50,000
1619/01 15:31TEMPOYAK71murni besar50,000
1719/01 15:30ROYAL6666murni kecil50,000
1819/01 15:30CANP1CONmurni besar50,000
1919/01 15:29JENDRAL011murni kecil25,000
2019/01 15:29DDJJ22murni besar25,000
2119/01 15:28DA6F17EBbalak50,000
2219/01 15:27UYEMANmurni besar25,000
2319/01 15:27UNYU111murni kecil25,000
2419/01 15:27SONY000murni besar25,000
2519/01 15:26TOHIR77CIKbalak50,000
2619/01 15:26JERRYANTObalak100,000
2719/01 15:26LOSARI77balak100,000
2819/01 15:26HIKAM92murni kecil50,000
2919/01 15:26OZY703murni besar5,000
3019/01 15:25AC69murni besar50,000
3119/01 15:24KPN72murni besar25,000
3219/01 15:24UNYU111murni besar25,000
3319/01 15:23JERRYANTObalak100,000
3419/01 15:21SEPTICTANKmurni kecil50,000
3519/01 15:20WIRRO_212murni besar25,000
3619/01 15:20B4NGSAT7murni kecil5,000
3719/01 15:20N3R1murni besar5,000
3819/01 15:18DIANTO76murni besar50,000
3919/01 15:18EMBOSmurni kecil25,000
4019/01 15:17DEWA1199murni kecil5,000
4119/01 15:17MAJU_TERUSmurni kecil50,000
4219/01 15:17CARTEERmurni kecil25,000
4319/01 15:16BUD196murni kecil50,000
4419/01 15:16ANCYRAbalak10,000
4519/01 15:15ASSASALIMmurni besar25,000
4619/01 15:14BNT08murni kecil25,000
4719/01 15:13HARIESJOZmurni besar50,000
4819/01 15:13PIT99murni kecil50,000
4919/01 15:12FIT9murni besar25,000
5019/01 15:11A093murni kecil25,000

Ceme Multi Jackpot System

Jackpot dilihat dari gabungan kartu pemain dengan kartu bandar. Bandar harus membeli jackpot sebanyak jumlah player yang sedang duduk. Sebagai contoh bila terdapat 3 pemain duduk bermain, dan bandar memutuskan untuk membeli jackpot Rp 1.000, maka pada periode tersebut bandar akan membeli jackpot sebanyak 3xRp1.000 = Rp3.000.

Jackpot bukanlah suatu keharusan untuk dibeli, namun kami memberikan suatu fitur tambahan untuk member tercinta dari www.kokipkr.com.

Terdapat tiga pilihan harga jackpot yang bisa anda beli yaitu :100,500 dan 1000 rupiah.

Hadiah dari Multi jackpot system www.kokipkr.com

  1. Murni Kecil x 50 harga jackpot yang anda beli.
      (contoh:anda membeli 1000 maka:1000 X 50 = 50.000)
  2. Murni Besar x 50 harga jackpot yang anda beli
      (contoh:anda membeli 1000 maka:1000 X 50 = 50.000)
  3. BALAK x 200 harga jackpot yang anda beli
      (contoh:anda membeli 1000 maka:1000 X 200 = 200.000)
  4. ENAM DEWA x 6666 harga jackpot yang anda beli
      (contoh:anda membeli 1000 maka:1000 X 6666 = 6.666.000)

Demikian adalah penjelasan dari Multi Jackpot www.kokipkr.com terima kasih dan selamat bermain salam hoki dari kami

Ceme Jackpot Winner

TOP ENAM DEWA
No.TanggalNamaPriceWin
119/01 15:16BAROOmurni enam3,333,000
219/01 15:16IWANPmurni enam6,666,000
319/01 15:10B1GNENENmurni enam3,333,000
419/01 14:42GOTEM008murni enam6,666,000
519/01 14:22HELBEHmurni enam666,600
TOP BALAK
No.TanggalNamaPriceWin
119/01 15:41JEKPOTT99balak200,000
219/01 15:40L0QUGYNFF5balak20,000
319/01 15:40KOHRONGbalak200,000
419/01 15:38BAIKBEHbalak200,000
519/01 15:36KTSKYXLYCKbalak200,000
LATEST JACKPOT
No.TanggalNamaPriceWin
119/01 15:41MAMATTImurni besar50,000
219/01 15:41C5E90049murni kecil25,000
319/01 15:41SAPI003murni kecil50,000
419/01 15:41GELIGAHmurni kecil5,000
519/01 15:41NUNG888murni besar50,000
619/01 15:41S4NSZmurni besar25,000
719/01 15:41JEKPOTT99balak200,000
819/01 15:41TALAHmurni kecil50,000
919/01 15:41ENTIZmurni besar5,000
1019/01 15:41CUMCUM13murni besar25,000
1119/01 15:40AALLUNGmurni kecil25,000
1219/01 15:40L0QUGYNFF5balak20,000
1319/01 15:40GANTA26murni kecil50,000
1419/01 15:40ANGIE1215murni kecil50,000
1519/01 15:40BAWON8murni kecil50,000
1619/01 15:40ANGIE1215murni kecil50,000
1719/01 15:40KOHRONGbalak200,000
1819/01 15:39BRENDOS020murni besar5,000
1919/01 15:39BRENDOS020murni besar5,000
2019/01 15:39H424E24D76murni besar5,000
2119/01 15:39PRAKA02murni besar50,000
2219/01 15:39RIKOKmurni besar25,000
2319/01 15:39THOL99murni besar25,000
2419/01 15:39TALAHmurni kecil50,000
2519/01 15:39SUOK87murni kecil25,000
2619/01 15:39BIM25murni besar50,000
2719/01 15:38JULIAN666murni kecil5,000
2819/01 15:38VIAR909murni kecil25,000
2919/01 15:38PARDEDE111murni kecil50,000
3019/01 15:38JEKPOTT99murni besar50,000
3119/01 15:38BAIKBEHbalak200,000
3219/01 15:38BONTOT378murni kecil5,000
3319/01 15:38VQBIWZG0TBmurni besar50,000
3419/01 15:38BUNGKUZ2murni besar5,000
3519/01 15:37AW83murni besar50,000
3619/01 15:37PK9H6TQWSUmurni kecil50,000
3719/01 15:37ANDISMILmurni kecil5,000
3819/01 15:37GANONG44murni besar50,000
3919/01 15:37HARIS358murni besar25,000
4019/01 15:37ASINPEDEZmurni kecil5,000
4119/01 15:37BASTOS666murni kecil5,000
4219/01 15:37PK9H6TQWSUmurni besar50,000
4319/01 15:37ANDISMILmurni besar5,000
4419/01 15:37APELKU12murni kecil50,000
4519/01 15:36HOT100murni kecil50,000
4619/01 15:36SUDIK212murni besar50,000
4719/01 15:36KTSKYXLYCKbalak200,000
4819/01 15:36SAPI003murni besar50,000
4919/01 15:36KUBAHMASmurni besar5,000
5019/01 15:36BNIAG66808balak200,000